O3B FM9 (40351 NORAD) Tracking and Keplerian Element Data

This shows tracking and keplerian element data for the satellite.

Feedback or suggestion? Click here.




ElementValue
Catalog40351
NameO3B FM9
Epoch Orbit14200
Epoch Day268.57106784
Epoch Year2022
RAAN8.0005
Inclination0.0578
Eccentricity0.0002597
Argument of Perigee178.0142
Mean Anonmoly173.9866
Mean Motion5.00116168
Decay Rate-1.7E-07
L11 40351U 14083D 22268.57106784 -.00000017 00000+0 00000+0 0 9994
L22 40351 0.0578 8.0005 0002597 178.0142 173.9866 5.00116168142009

Live tracking and technical data element details for O3B FM9 (NORAD 40351). O3B FM9 can be tracked NOW for your location showing map with azimuth and elevation plus other details from your city location.

Track the satellite on the map from your city or location and see movement details for azimuth, elevation, latitude, longitude, range, height, and movement on the map or in text.







IsCatalogInMostPopularTable: catalog: 40351, numindb: 603
Update: records affected: 1



GetName: 40351 O3B FM9

Hit Count: updated at: Thu, 29 Sep 2022 11:30:14 GMT